Year,Month,Day,Hour,Minute,Value (Times are PST for temperature in C)
2015,08,09,00,00,16.70
2015,08,09,00,01,16.70
2015,08,09,00,04,16.80
2015,08,09,00,05,16.80
2015,08,09,00,06,16.80
2015,08,09,00,07,16.80
2015,08,09,00,08,16.80
2015,08,09,00,09,16.80
2015,08,09,00,10,16.80
2015,08,09,00,11,16.80
2015,08,09,00,12,16.80
2015,08,09,00,13,16.80
2015,08,09,00,15,16.80
2015,08,09,00,16,16.80
2015,08,09,00,17,16.80
2015,08,09,00,18,16.80
2015,08,09,00,19,16.80
2015,08,09,00,20,16.80
2015,08,09,00,21,16.80
2015,08,09,00,22,16.80
2015,08,09,00,23,16.80
2015,08,09,00,24,16.80
2015,08,09,00,25,16.80
2015,08,09,00,26,16.80
2015,08,09,00,27,16.80
2015,08,09,00,28,16.80
2015,08,09,00,29,16.80
2015,08,09,00,30,16.80
2015,08,09,00,31,16.80
2015,08,09,00,32,16.80
2015,08,09,00,33,16.80
2015,08,09,00,34,16.80
2015,08,09,00,35,16.80
2015,08,09,00,36,16.80
2015,08,09,00,37,16.80
2015,08,09,00,38,16.80
2015,08,09,00,39,16.80
2015,08,09,00,40,16.80
2015,08,09,00,41,16.80
2015,08,09,00,42,16.80
2015,08,09,00,43,16.80
2015,08,09,00,44,16.80
2015,08,09,00,45,16.90
2015,08,09,00,46,16.90
2015,08,09,00,47,16.90
2015,08,09,00,48,16.90
2015,08,09,00,49,16.90
2015,08,09,00,50,16.90
2015,08,09,00,51,16.90
2015,08,09,00,52,16.90
2015,08,09,00,53,16.90
2015,08,09,00,54,16.90
2015,08,09,00,55,16.90
2015,08,09,00,56,16.90
2015,08,09,00,57,16.80
2015,08,09,00,58,16.80
2015,08,09,00,59,16.80
2015,08,09,01,00,16.80
2015,08,09,01,01,16.80
2015,08,09,01,02,16.80
2015,08,09,01,03,16.80
2015,08,09,01,04,16.80
2015,08,09,01,05,16.80
2015,08,09,01,06,16.80
2015,08,09,01,07,16.80
2015,08,09,01,08,16.80
2015,08,09,01,09,16.80
2015,08,09,01,10,16.80
2015,08,09,01,11,16.80
2015,08,09,01,12,16.80
2015,08,09,01,13,16.80
2015,08,09,01,14,16.80
2015,08,09,01,15,16.80
2015,08,09,01,16,16.80
2015,08,09,01,17,16.80
2015,08,09,01,18,16.80
2015,08,09,01,19,16.80
2015,08,09,01,20,16.80
2015,08,09,01,21,16.80
2015,08,09,01,22,16.70
2015,08,09,01,23,16.70
2015,08,09,01,24,16.70
2015,08,09,01,25,16.70
2015,08,09,01,26,16.70
2015,08,09,01,27,16.70
2015,08,09,01,28,16.70
2015,08,09,01,29,16.70
2015,08,09,01,30,16.70
2015,08,09,01,31,16.70
2015,08,09,01,32,16.70
2015,08,09,01,33,16.70
2015,08,09,01,34,16.70
2015,08,09,01,35,16.70
2015,08,09,01,36,16.70
2015,08,09,01,37,16.70
2015,08,09,01,38,16.70
2015,08,09,01,39,16.70
2015,08,09,01,40,16.70
2015,08,09,01,41,16.70
2015,08,09,01,42,16.70
2015,08,09,01,43,16.60
2015,08,09,01,44,16.60
2015,08,09,01,45,16.60
2015,08,09,01,46,16.60
2015,08,09,01,47,16.60
2015,08,09,01,48,16.60
2015,08,09,01,49,16.60
2015,08,09,01,50,16.60
2015,08,09,01,51,16.50
2015,08,09,01,52,16.50
2015,08,09,01,53,16.50
2015,08,09,01,56,16.40
2015,08,09,01,57,16.40
2015,08,09,01,58,16.40
2015,08,09,01,59,16.40
2015,08,09,02,00,16.40
2015,08,09,02,01,16.40
2015,08,09,02,02,16.30
2015,08,09,02,03,16.30
2015,08,09,02,04,16.30
2015,08,09,02,05,16.30
2015,08,09,02,09,16.20
2015,08,09,02,10,16.20
2015,08,09,02,11,16.20
2015,08,09,02,12,16.20
2015,08,09,02,13,16.20
2015,08,09,02,14,16.20
2015,08,09,02,15,16.10
2015,08,09,02,16,16.10
2015,08,09,02,17,16.10
2015,08,09,02,18,16.10
2015,08,09,02,19,16.10
2015,08,09,02,20,16.10
2015,08,09,02,21,16.10
2015,08,09,02,22,16.10
2015,08,09,02,23,16.10
2015,08,09,02,24,16.10
2015,08,09,02,25,16.10
2015,08,09,02,26,16.10
2015,08,09,02,28,16.00
2015,08,09,02,29,16.00
2015,08,09,02,30,16.00
2015,08,09,02,31,16.00
2015,08,09,02,32,15.90
2015,08,09,02,33,16.00
2015,08,09,02,34,15.90
2015,08,09,02,35,15.90
2015,08,09,02,36,15.90
2015,08,09,02,37,15.90
2015,08,09,02,38,15.90
2015,08,09,02,39,15.90
2015,08,09,02,40,15.90
2015,08,09,02,41,15.90
2015,08,09,02,42,15.80
2015,08,09,02,43,15.80
2015,08,09,02,45,15.80
2015,08,09,02,46,15.80
2015,08,09,02,47,15.80
2015,08,09,02,48,15.70
2015,08,09,02,49,15.70
2015,08,09,02,50,15.70
2015,08,09,02,51,15.70
2015,08,09,02,52,15.70
2015,08,09,02,53,15.70
2015,08,09,02,54,15.70
2015,08,09,02,55,15.70
2015,08,09,02,56,15.60
2015,08,09,02,57,15.70
2015,08,09,02,58,15.70
2015,08,09,02,59,15.60
2015,08,09,03,00,15.60
2015,08,09,03,01,15.60
2015,08,09,03,02,15.60
2015,08,09,03,03,15.60
2015,08,09,03,04,15.60
2015,08,09,03,05,15.60
2015,08,09,03,07,15.60
2015,08,09,03,08,15.60
2015,08,09,03,09,15.60
2015,08,09,03,10,15.60
2015,08,09,03,11,15.60
2015,08,09,03,12,15.70
2015,08,09,03,13,15.70
2015,08,09,03,14,15.70
2015,08,09,03,15,15.70
2015,08,09,03,16,15.80
2015,08,09,03,17,15.80
2015,08,09,03,18,15.80
2015,08,09,03,19,15.80
2015,08,09,03,20,15.80
2015,08,09,03,21,15.80
2015,08,09,03,22,15.80
2015,08,09,03,23,15.90
2015,08,09,03,24,15.90
2015,08,09,03,25,15.90
2015,08,09,03,26,15.90
2015,08,09,03,27,15.90
2015,08,09,03,28,15.90
2015,08,09,03,30,16.00
2015,08,09,03,31,16.00
2015,08,09,03,32,16.00
2015,08,09,03,33,16.00
2015,08,09,03,34,16.10
2015,08,09,03,35,16.10
2015,08,09,03,36,16.10
2015,08,09,03,37,16.00
2015,08,09,03,38,16.00
2015,08,09,03,39,16.10
2015,08,09,03,40,16.10
2015,08,09,03,41,16.10
2015,08,09,03,42,16.00
2015,08,09,03,43,16.00
2015,08,09,03,44,16.00
2015,08,09,03,45,16.00
2015,08,09,03,46,16.00
2015,08,09,03,47,16.10
2015,08,09,03,48,16.00
2015,08,09,03,49,16.10
2015,08,09,03,50,16.00
2015,08,09,03,51,16.10
2015,08,09,03,52,16.00
2015,08,09,03,53,16.00
2015,08,09,03,54,16.00
2015,08,09,03,55,16.00
2015,08,09,03,56,16.00
2015,08,09,03,57,16.00
2015,08,09,03,58,16.00
2015,08,09,03,59,16.00
2015,08,09,04,00,16.00
2015,08,09,04,01,16.00
2015,08,09,04,02,16.10
2015,08,09,04,04,16.10
2015,08,09,04,05,16.10
2015,08,09,04,06,16.10
2015,08,09,04,07,16.10
2015,08,09,04,08,16.10
2015,08,09,04,09,16.10
2015,08,09,04,10,16.10
2015,08,09,04,11,16.10
2015,08,09,04,13,16.10
2015,08,09,04,14,16.10
2015,08,09,04,15,16.10
2015,08,09,04,16,16.10
2015,08,09,04,17,16.10
2015,08,09,04,18,16.10
2015,08,09,04,19,16.10
2015,08,09,04,20,16.10
2015,08,09,04,21,16.10
2015,08,09,04,22,16.10
2015,08,09,04,23,16.10
2015,08,09,04,25,16.10
2015,08,09,04,26,16.10
2015,08,09,04,27,16.10
2015,08,09,04,28,16.10
2015,08,09,04,29,16.20
2015,08,09,04,31,16.20
2015,08,09,04,32,16.20
2015,08,09,04,33,16.20
2015,08,09,04,34,16.20
2015,08,09,04,35,16.20
2015,08,09,04,37,16.20
2015,08,09,04,38,16.20
2015,08,09,04,41,16.20
2015,08,09,04,42,16.20
2015,08,09,04,43,16.20
2015,08,09,04,45,16.20
2015,08,09,04,46,16.20
2015,08,09,04,47,16.20
2015,08,09,04,48,16.20
2015,08,09,04,49,16.20
2015,08,09,04,50,16.20
2015,08,09,04,51,16.20
2015,08,09,04,52,16.20
2015,08,09,04,53,16.20
2015,08,09,04,54,16.20
2015,08,09,04,55,16.20
2015,08,09,04,56,16.20
2015,08,09,04,57,16.20
2015,08,09,04,58,16.20
2015,08,09,04,59,16.20
2015,08,09,05,00,16.20
2015,08,09,05,01,16.20
2015,08,09,05,02,16.20
2015,08,09,05,03,16.20
2015,08,09,05,04,16.20
2015,08,09,05,05,16.20
2015,08,09,05,06,16.20
2015,08,09,05,07,16.20
2015,08,09,05,08,16.20
2015,08,09,05,09,16.20
2015,08,09,05,10,16.20
2015,08,09,05,11,16.20
2015,08,09,05,12,16.20
2015,08,09,05,13,16.20
2015,08,09,05,14,16.20
2015,08,09,05,15,16.20
2015,08,09,05,16,16.20
2015,08,09,05,18,16.20
2015,08,09,05,19,16.20
2015,08,09,05,20,16.10
2015,08,09,05,21,16.10
2015,08,09,05,22,16.10
2015,08,09,05,24,16.10
2015,08,09,05,25,16.10
2015,08,09,05,26,16.10
2015,08,09,05,28,16.10
2015,08,09,05,29,16.00
2015,08,09,05,30,16.00
2015,08,09,05,31,16.00
2015,08,09,05,32,16.00
2015,08,09,05,33,15.90
2015,08,09,05,35,15.90
2015,08,09,05,36,15.90
2015,08,09,05,37,15.90
2015,08,09,05,38,15.90
2015,08,09,05,39,15.90
2015,08,09,05,40,15.90
2015,08,09,05,41,15.90
2015,08,09,05,42,15.90
2015,08,09,05,43,15.90
2015,08,09,05,44,15.90
2015,08,09,05,45,15.90
2015,08,09,05,46,15.90
2015,08,09,05,47,15.90
2015,08,09,05,48,15.90
2015,08,09,05,49,15.90
2015,08,09,05,50,15.90
2015,08,09,05,51,15.90
2015,08,09,05,52,15.90
2015,08,09,05,53,15.90
2015,08,09,05,54,15.80
2015,08,09,05,55,15.80
2015,08,09,05,56,15.80
2015,08,09,05,57,15.80
2015,08,09,05,58,15.80
2015,08,09,05,59,15.80
2015,08,09,06,00,15.80
2015,08,09,06,01,15.80
2015,08,09,06,02,15.80
2015,08,09,06,03,15.80
2015,08,09,06,04,15.80
2015,08,09,06,05,15.80
2015,08,09,06,06,15.80
2015,08,09,06,07,15.80
2015,08,09,06,08,15.80
2015,08,09,06,09,15.80
2015,08,09,06,10,15.80
2015,08,09,06,11,15.80
2015,08,09,06,12,15.80
2015,08,09,06,13,15.80
2015,08,09,06,14,15.80
2015,08,09,06,15,15.80
2015,08,09,06,16,15.80
2015,08,09,06,17,15.80
2015,08,09,06,18,15.80
2015,08,09,06,19,15.80
2015,08,09,06,20,15.80
2015,08,09,06,21,15.80
2015,08,09,06,22,15.80
2015,08,09,06,24,15.80
2015,08,09,06,25,15.80
2015,08,09,06,26,15.80
2015,08,09,06,27,15.80
2015,08,09,06,28,15.80
2015,08,09,06,29,15.80
2015,08,09,06,30,15.80
2015,08,09,06,33,15.80
2015,08,09,06,34,15.80
2015,08,09,06,35,15.80
2015,08,09,06,36,15.80
2015,08,09,06,38,15.80
2015,08,09,06,39,15.80
2015,08,09,06,40,15.80
2015,08,09,06,41,15.80
2015,08,09,06,42,15.80
2015,08,09,06,43,15.80
2015,08,09,06,44,15.80
2015,08,09,06,45,15.80
2015,08,09,06,46,15.90
2015,08,09,06,47,15.90
2015,08,09,06,48,15.90
2015,08,09,06,49,15.90
2015,08,09,06,50,15.90
2015,08,09,06,51,15.90
2015,08,09,06,53,15.90
2015,08,09,06,54,16.00
2015,08,09,06,55,16.00
2015,08,09,06,56,16.00
2015,08,09,06,57,16.00
2015,08,09,06,58,16.00
2015,08,09,06,59,16.00
2015,08,09,07,00,16.00
2015,08,09,07,01,16.00
2015,08,09,07,02,16.00
2015,08,09,07,03,16.10
2015,08,09,07,04,16.10
2015,08,09,07,05,16.10
2015,08,09,07,06,16.10
2015,08,09,07,07,16.10
2015,08,09,07,08,16.10
2015,08,09,07,09,16.10
2015,08,09,07,10,16.10
2015,08,09,07,11,16.20
2015,08,09,07,12,16.20
2015,08,09,07,13,16.20
2015,08,09,07,14,16.20
2015,08,09,07,15,16.20
2015,08,09,07,16,16.20
2015,08,09,07,17,16.20
2015,08,09,07,18,16.30
2015,08,09,07,19,16.30
2015,08,09,07,20,16.30
2015,08,09,07,21,16.30
2015,08,09,07,22,16.30
2015,08,09,07,23,16.30
2015,08,09,07,24,16.30
2015,08,09,07,25,16.30
2015,08,09,07,27,16.30
2015,08,09,07,28,16.30
2015,08,09,07,29,16.30
2015,08,09,07,30,16.30
2015,08,09,07,31,16.30
2015,08,09,07,32,16.30
2015,08,09,07,33,16.30
2015,08,09,07,34,16.30
2015,08,09,07,35,16.30
2015,08,09,07,36,16.30
2015,08,09,07,37,16.30
2015,08,09,07,38,16.20
2015,08,09,07,39,16.20
2015,08,09,07,40,16.20
2015,08,09,07,41,16.20
2015,08,09,07,42,16.20
2015,08,09,07,43,16.20
2015,08,09,07,44,16.20
2015,08,09,07,45,16.20
2015,08,09,07,46,16.20
2015,08,09,07,47,16.20
2015,08,09,07,48,16.20
2015,08,09,07,49,16.20
2015,08,09,07,50,16.10
2015,08,09,07,51,16.10
2015,08,09,07,52,16.10
2015,08,09,07,53,16.10
2015,08,09,07,54,16.10
2015,08,09,07,55,16.10
2015,08,09,07,56,16.10
2015,08,09,07,57,16.10
2015,08,09,07,58,16.10
2015,08,09,07,59,16.10
2015,08,09,08,00,16.20
2015,08,09,08,01,16.20
2015,08,09,08,02,16.20
2015,08,09,08,03,16.20
2015,08,09,08,04,16.20
2015,08,09,08,05,16.20
2015,08,09,08,06,16.20
2015,08,09,08,07,16.20
2015,08,09,08,08,16.20
2015,08,09,08,09,16.20
2015,08,09,08,10,16.20
2015,08,09,08,11,16.20
2015,08,09,08,12,16.20
2015,08,09,08,13,16.20
2015,08,09,08,14,16.20
2015,08,09,08,15,16.20
2015,08,09,08,16,16.20
2015,08,09,08,17,16.20
2015,08,09,08,18,16.20
2015,08,09,08,21,16.30
2015,08,09,08,22,16.30
2015,08,09,08,23,16.30
2015,08,09,08,24,16.40
2015,08,09,08,25,16.40
2015,08,09,08,28,16.40
2015,08,09,08,32,16.60
2015,08,09,08,33,16.60
2015,08,09,08,34,16.60
2015,08,09,08,35,16.60
2015,08,09,08,36,16.60
2015,08,09,08,37,16.60
2015,08,09,08,38,16.60
2015,08,09,08,39,16.60
2015,08,09,08,41,16.60
2015,08,09,08,42,16.60
2015,08,09,08,43,16.60
2015,08,09,08,44,16.60
2015,08,09,08,45,16.60
2015,08,09,08,46,16.50
2015,08,09,08,47,16.50
2015,08,09,08,48,16.50
2015,08,09,08,49,16.50
2015,08,09,08,50,16.50
2015,08,09,08,51,16.50
2015,08,09,08,52,16.50
2015,08,09,08,53,16.50
2015,08,09,08,54,16.50
2015,08,09,08,55,16.50
2015,08,09,08,56,16.50
2015,08,09,08,57,16.40
2015,08,09,08,58,16.40
2015,08,09,08,59,16.40
2015,08,09,09,00,16.40
2015,08,09,09,01,16.40
2015,08,09,09,02,16.40
2015,08,09,09,03,16.40
2015,08,09,09,04,16.40
2015,08,09,09,05,16.40
2015,08,09,09,06,16.40
2015,08,09,09,07,16.40
2015,08,09,09,08,16.40
2015,08,09,09,09,16.50
2015,08,09,09,10,16.50
2015,08,09,09,11,16.50
2015,08,09,09,12,16.50
2015,08,09,09,13,16.60
2015,08,09,09,14,16.60
2015,08,09,09,16,16.60
2015,08,09,09,18,16.70
2015,08,09,09,19,16.70
2015,08,09,09,20,16.70
2015,08,09,09,21,16.80
2015,08,09,09,22,16.80
2015,08,09,09,23,16.80
2015,08,09,09,24,16.90
2015,08,09,09,25,16.90
2015,08,09,09,26,17.00
2015,08,09,09,27,17.10
2015,08,09,09,28,17.20
2015,08,09,09,29,17.20
2015,08,09,09,30,17.30
2015,08,09,09,31,17.30
2015,08,09,09,32,17.30
2015,08,09,09,33,17.30
2015,08,09,09,34,17.40
2015,08,09,09,35,17.40
2015,08,09,09,36,17.40
2015,08,09,09,37,17.40
2015,08,09,09,38,17.50
2015,08,09,09,39,17.60
2015,08,09,09,40,17.70
2015,08,09,09,41,17.70
2015,08,09,09,42,17.80
2015,08,09,09,43,17.90
2015,08,09,09,44,18.10
2015,08,09,09,45,18.20
2015,08,09,09,46,18.30
2015,08,09,09,47,18.30
2015,08,09,09,49,18.60
2015,08,09,09,50,18.70
2015,08,09,09,51,18.80
2015,08,09,09,53,19.00
2015,08,09,09,54,19.10
2015,08,09,09,55,19.20
2015,08,09,09,56,19.30
2015,08,09,09,57,19.40
2015,08,09,09,58,19.50
2015,08,09,09,59,19.60
2015,08,09,10,00,19.60
2015,08,09,10,01,19.70
2015,08,09,10,02,19.80
2015,08,09,10,03,19.80
2015,08,09,10,04,19.90
2015,08,09,10,05,19.90
2015,08,09,10,06,19.90
2015,08,09,10,07,19.90
2015,08,09,10,08,19.90
2015,08,09,10,09,19.90
2015,08,09,10,10,19.90
2015,08,09,10,11,19.90
2015,08,09,10,12,19.80
2015,08,09,10,13,19.80
2015,08,09,10,14,19.80
2015,08,09,10,15,19.80
2015,08,09,10,16,19.80
2015,08,09,10,17,19.80
2015,08,09,10,18,19.80
2015,08,09,10,19,19.80
2015,08,09,10,20,19.80
2015,08,09,10,22,19.70
2015,08,09,10,23,19.70
2015,08,09,10,24,19.60
2015,08,09,10,25,19.60
2015,08,09,10,26,19.60
2015,08,09,10,27,19.60
2015,08,09,10,28,19.60
2015,08,09,10,29,19.60
2015,08,09,10,30,19.60
2015,08,09,10,31,19.60
2015,08,09,10,32,19.60
2015,08,09,10,33,19.70
2015,08,09,10,34,19.70
2015,08,09,10,35,19.70
2015,08,09,10,36,19.70
2015,08,09,10,37,19.70
2015,08,09,10,39,19.70
2015,08,09,10,40,19.70
2015,08,09,10,41,19.70
2015,08,09,10,42,19.80
2015,08,09,10,43,19.80
2015,08,09,10,44,19.80
2015,08,09,10,45,19.90
2015,08,09,10,46,19.90
2015,08,09,10,47,20.00
2015,08,09,10,49,20.10
2015,08,09,10,50,20.10
2015,08,09,10,51,20.10
2015,08,09,10,52,20.00
2015,08,09,10,53,19.90
2015,08,09,10,54,19.90
2015,08,09,10,55,19.90
2015,08,09,10,56,19.90
2015,08,09,10,57,19.90
2015,08,09,10,58,19.90
2015,08,09,10,59,19.90
2015,08,09,11,00,19.90
2015,08,09,11,01,19.90
2015,08,09,11,02,20.00
2015,08,09,11,03,20.00
2015,08,09,11,04,20.10
2015,08,09,11,06,20.30
2015,08,09,11,07,20.30
2015,08,09,11,08,20.40
2015,08,09,11,09,20.60
2015,08,09,11,10,20.60
2015,08,09,11,11,20.70
2015,08,09,11,12,20.70
2015,08,09,11,14,20.80
2015,08,09,11,15,20.80
2015,08,09,11,16,20.80
2015,08,09,11,17,20.90
2015,08,09,11,18,20.90
2015,08,09,11,20,20.90
2015,08,09,11,21,20.90
2015,08,09,11,22,20.90
2015,08,09,11,23,20.90
2015,08,09,11,24,21.00
2015,08,09,11,25,21.10
2015,08,09,11,26,21.10
2015,08,09,11,27,21.10
2015,08,09,11,28,21.10
2015,08,09,11,29,21.10
2015,08,09,11,30,21.10
2015,08,09,11,31,21.10
2015,08,09,11,32,21.00
2015,08,09,11,33,20.90
2015,08,09,11,34,20.90
2015,08,09,11,35,20.90
2015,08,09,11,36,20.80
2015,08,09,11,37,20.80
2015,08,09,11,38,20.80
2015,08,09,11,39,20.90
2015,08,09,11,40,20.90
2015,08,09,11,41,21.00
2015,08,09,11,42,21.00
2015,08,09,11,43,21.10
2015,08,09,11,44,21.10
2015,08,09,11,45,21.10
2015,08,09,11,46,21.10
2015,08,09,11,48,21.10
2015,08,09,11,49,21.10
2015,08,09,11,50,21.10
2015,08,09,11,52,21.10
2015,08,09,11,53,21.10
2015,08,09,11,54,21.10
2015,08,09,11,55,21.10
2015,08,09,11,56,21.20
2015,08,09,11,57,21.20
2015,08,09,11,59,21.20
2015,08,09,12,00,21.30
2015,08,09,12,01,21.30
2015,08,09,12,02,21.30
2015,08,09,12,03,21.30
2015,08,09,12,04,21.40
2015,08,09,12,05,21.40
2015,08,09,12,06,21.40
2015,08,09,12,07,21.40
2015,08,09,12,08,21.40
2015,08,09,12,09,21.40
2015,08,09,12,10,21.40
2015,08,09,12,11,21.50
2015,08,09,12,12,21.50
2015,08,09,12,13,21.60
2015,08,09,12,14,21.60
2015,08,09,12,15,21.60
2015,08,09,12,16,21.60
2015,08,09,12,17,21.60
2015,08,09,12,18,21.70
2015,08,09,12,19,21.70
2015,08,09,12,20,21.60
2015,08,09,12,22,21.70
2015,08,09,12,23,21.70
2015,08,09,12,24,21.70
2015,08,09,12,25,21.70
2015,08,09,12,26,21.70
2015,08,09,12,27,21.70
2015,08,09,12,28,21.80
2015,08,09,12,29,21.80
2015,08,09,12,30,21.80
2015,08,09,12,31,21.90
2015,08,09,12,32,21.90
2015,08,09,12,33,21.90
2015,08,09,12,34,22.00
2015,08,09,12,35,22.10
2015,08,09,12,36,22.10
2015,08,09,12,37,22.10
2015,08,09,12,38,22.10
2015,08,09,12,39,22.10
2015,08,09,12,40,22.20
2015,08,09,12,41,22.20
2015,08,09,12,42,22.30
2015,08,09,12,43,22.30
2015,08,09,12,44,22.30
2015,08,09,12,45,22.30
2015,08,09,12,46,22.30
2015,08,09,12,47,22.20
2015,08,09,12,48,22.10
2015,08,09,12,49,22.00
2015,08,09,12,50,21.90
2015,08,09,12,51,21.90
2015,08,09,12,52,21.90
2015,08,09,12,53,21.90
2015,08,09,12,54,21.90
2015,08,09,12,55,21.90
2015,08,09,12,56,22.00
2015,08,09,12,57,22.00
2015,08,09,12,58,22.10
2015,08,09,12,59,22.10
2015,08,09,13,00,22.10
2015,08,09,13,01,22.00
2015,08,09,13,02,22.00
2015,08,09,13,03,22.00
2015,08,09,13,04,22.00
2015,08,09,13,05,22.00
2015,08,09,13,06,22.10
2015,08,09,13,07,22.10
2015,08,09,13,10,22.10
2015,08,09,13,11,22.10
2015,08,09,13,13,22.20
2015,08,09,13,14,22.20
2015,08,09,13,15,22.20
2015,08,09,13,16,22.20
2015,08,09,13,17,22.20
2015,08,09,13,18,22.20
2015,08,09,13,19,22.20
2015,08,09,13,20,22.20
2015,08,09,13,21,22.20
2015,08,09,13,22,22.20
2015,08,09,13,23,22.20
2015,08,09,13,24,22.20
2015,08,09,13,25,22.20
2015,08,09,13,26,22.20
2015,08,09,13,27,22.20
2015,08,09,13,28,22.20
2015,08,09,13,29,22.20
2015,08,09,13,30,22.20
2015,08,09,13,31,22.20
2015,08,09,13,32,22.20
2015,08,09,13,33,22.30
2015,08,09,13,34,22.30
2015,08,09,13,35,22.40
2015,08,09,13,36,22.50
2015,08,09,13,37,22.60
2015,08,09,13,38,22.60
2015,08,09,13,39,22.60
2015,08,09,13,40,22.60
2015,08,09,13,41,22.70
2015,08,09,13,42,22.70
2015,08,09,13,43,22.70
2015,08,09,13,44,22.70
2015,08,09,13,45,22.70
2015,08,09,13,46,22.80
2015,08,09,13,48,22.80
2015,08,09,13,51,22.90
2015,08,09,13,52,22.90
2015,08,09,13,53,22.90
2015,08,09,13,54,22.90
2015,08,09,13,55,23.00
2015,08,09,13,56,23.10
2015,08,09,13,57,23.20
2015,08,09,13,58,23.20
2015,08,09,14,00,23.30
2015,08,09,14,01,23.30
2015,08,09,14,02,23.40
2015,08,09,14,03,23.50
2015,08,09,14,04,23.60
2015,08,09,14,05,23.70
2015,08,09,14,06,23.70
2015,08,09,14,07,23.70
2015,08,09,14,08,23.70
2015,08,09,14,09,23.70
2015,08,09,14,10,23.60
2015,08,09,14,11,23.50
2015,08,09,14,12,23.40
2015,08,09,14,13,23.40
2015,08,09,14,14,23.40
2015,08,09,14,15,23.40
2015,08,09,14,16,23.40
2015,08,09,14,17,23.30
2015,08,09,14,18,23.30
2015,08,09,14,19,23.20
2015,08,09,14,20,23.20
2015,08,09,14,21,23.10
2015,08,09,14,22,23.10
2015,08,09,14,23,23.10
2015,08,09,14,24,23.00
2015,08,09,14,25,22.90
2015,08,09,14,26,22.90
2015,08,09,14,27,22.90
2015,08,09,14,28,22.80
2015,08,09,14,29,22.80
2015,08,09,14,30,22.80
2015,08,09,14,31,22.80
2015,08,09,14,32,22.80
2015,08,09,14,33,22.90
2015,08,09,14,34,22.90
2015,08,09,14,35,23.00
2015,08,09,14,36,23.10
2015,08,09,14,37,23.20
2015,08,09,14,38,23.30
2015,08,09,14,39,23.30
2015,08,09,14,40,23.40
2015,08,09,14,41,23.50
2015,08,09,14,42,23.60
2015,08,09,14,43,23.60
2015,08,09,14,44,23.60
2015,08,09,14,45,23.60
2015,08,09,14,46,23.60
2015,08,09,14,47,23.60
2015,08,09,14,48,23.60
2015,08,09,14,49,23.60
2015,08,09,14,50,23.60
2015,08,09,14,51,23.60
2015,08,09,14,52,23.60
2015,08,09,14,53,23.60
2015,08,09,14,54,23.50
2015,08,09,14,55,23.40
2015,08,09,14,56,23.40
2015,08,09,14,57,23.40
2015,08,09,14,58,23.40
2015,08,09,14,59,23.40
2015,08,09,15,00,23.40
2015,08,09,15,01,23.40
2015,08,09,15,02,23.40
2015,08,09,15,03,23.40
2015,08,09,15,04,23.50
2015,08,09,15,05,23.60
2015,08,09,15,06,23.60
2015,08,09,15,07,23.60
2015,08,09,15,08,23.70
2015,08,09,15,09,23.70
2015,08,09,15,10,23.70
2015,08,09,15,12,23.70
2015,08,09,15,13,23.70
2015,08,09,15,14,23.70
2015,08,09,15,15,23.70
2015,08,09,15,16,23.70
2015,08,09,15,17,23.70
2015,08,09,15,18,23.70
2015,08,09,15,19,23.60
2015,08,09,15,21,23.60
2015,08,09,15,22,23.70
2015,08,09,15,23,23.70
2015,08,09,15,24,23.70
2015,08,09,15,25,23.70
2015,08,09,15,26,23.60
2015,08,09,15,27,23.60
2015,08,09,15,28,23.70
2015,08,09,15,29,23.70
2015,08,09,15,30,23.70
2015,08,09,15,31,23.70
2015,08,09,15,32,23.70
2015,08,09,15,33,23.70
2015,08,09,15,34,23.80
2015,08,09,15,35,23.80
2015,08,09,15,36,23.80
2015,08,09,15,37,23.80
2015,08,09,15,38,23.80
2015,08,09,15,39,23.80
2015,08,09,15,40,23.80
2015,08,09,15,41,23.80
2015,08,09,15,44,23.70
2015,08,09,15,45,23.70
2015,08,09,15,46,23.70
2015,08,09,15,47,23.70
2015,08,09,15,48,23.60
2015,08,09,15,49,23.60
2015,08,09,15,51,23.60
2015,08,09,15,52,23.60
2015,08,09,15,53,23.60
2015,08,09,15,54,23.60
2015,08,09,15,55,23.60
2015,08,09,15,56,23.60
2015,08,09,15,57,23.60
2015,08,09,15,58,23.60
2015,08,09,15,59,23.60
2015,08,09,16,00,23.60
2015,08,09,16,01,23.50
2015,08,09,16,02,23.50
2015,08,09,16,03,23.40
2015,08,09,16,04,23.40
2015,08,09,16,05,23.40
2015,08,09,16,06,23.40
2015,08,09,16,07,23.40
2015,08,09,16,08,23.40
2015,08,09,16,09,23.40
2015,08,09,16,10,23.40
2015,08,09,16,11,23.30
2015,08,09,16,12,23.40
2015,08,09,16,13,23.40
2015,08,09,16,14,23.40
2015,08,09,16,15,23.40
2015,08,09,16,16,23.40
2015,08,09,16,17,23.40
2015,08,09,16,18,23.40
2015,08,09,16,19,23.30
2015,08,09,16,20,23.30
2015,08,09,16,21,23.30
2015,08,09,16,22,23.30
2015,08,09,16,24,23.20
2015,08,09,16,25,23.20
2015,08,09,16,26,23.20
2015,08,09,16,27,23.20
2015,08,09,16,28,23.10
2015,08,09,16,29,23.10
2015,08,09,16,30,23.20
2015,08,09,16,31,23.20
2015,08,09,16,32,23.20
2015,08,09,16,33,23.20
2015,08,09,16,34,23.20
2015,08,09,16,35,23.20
2015,08,09,16,36,23.20
2015,08,09,16,37,23.10
2015,08,09,16,38,23.10
2015,08,09,16,39,23.10
2015,08,09,16,40,23.10
2015,08,09,16,41,23.00
2015,08,09,16,42,23.00
2015,08,09,16,43,23.00
2015,08,09,16,44,23.10
2015,08,09,16,45,23.10
2015,08,09,16,46,23.10
2015,08,09,16,47,23.10
2015,08,09,16,48,23.10
2015,08,09,16,49,23.20
2015,08,09,16,50,23.20
2015,08,09,16,51,23.20
2015,08,09,16,52,23.20
2015,08,09,16,55,23.30
2015,08,09,16,56,23.30
2015,08,09,16,57,23.30
2015,08,09,16,58,23.30
2015,08,09,16,59,23.30
2015,08,09,17,00,23.30
2015,08,09,17,02,23.30
2015,08,09,17,03,23.30
2015,08,09,17,04,23.30
2015,08,09,17,05,23.30
2015,08,09,17,06,23.30
2015,08,09,17,07,23.20
2015,08,09,17,08,23.20
2015,08,09,17,09,23.20
2015,08,09,17,10,23.20
2015,08,09,17,11,23.10
2015,08,09,17,12,23.10
2015,08,09,17,13,23.10
2015,08,09,17,14,23.00
2015,08,09,17,15,23.00
2015,08,09,17,16,23.00
2015,08,09,17,17,23.00
2015,08,09,17,18,23.00
2015,08,09,17,19,23.00
2015,08,09,17,20,23.00
2015,08,09,17,21,23.10
2015,08,09,17,22,23.10
2015,08,09,17,23,23.10
2015,08,09,17,24,23.10
2015,08,09,17,25,23.10
2015,08,09,17,26,23.10
2015,08,09,17,27,23.10
2015,08,09,17,28,23.10
2015,08,09,17,29,23.10
2015,08,09,17,30,23.10
2015,08,09,17,31,23.10
2015,08,09,17,32,23.10
2015,08,09,17,33,23.10
2015,08,09,17,34,23.10
2015,08,09,17,35,23.10
2015,08,09,17,36,23.10
2015,08,09,17,37,23.10
2015,08,09,17,38,23.10
2015,08,09,17,39,23.10
2015,08,09,17,43,23.10
2015,08,09,17,46,23.10
2015,08,09,17,47,23.10
2015,08,09,17,48,23.10
2015,08,09,17,49,23.10
2015,08,09,17,50,23.10
2015,08,09,17,51,23.10
2015,08,09,17,52,23.10
2015,08,09,17,53,23.10
2015,08,09,17,54,23.20
2015,08,09,17,55,23.10
2015,08,09,17,56,23.20
2015,08,09,17,57,23.20
2015,08,09,17,58,23.20
2015,08,09,17,59,23.20
2015,08,09,18,00,23.20
2015,08,09,18,01,23.20
2015,08,09,18,02,23.20
2015,08,09,18,03,23.20
2015,08,09,18,04,23.20
2015,08,09,18,05,23.20
2015,08,09,18,06,23.20
2015,08,09,18,07,23.20
2015,08,09,18,09,23.10
2015,08,09,18,10,23.10
2015,08,09,18,11,23.10
2015,08,09,18,12,23.10
2015,08,09,18,13,23.10
2015,08,09,18,14,23.10
2015,08,09,18,15,23.10
2015,08,09,18,16,23.10
2015,08,09,18,17,23.10
2015,08,09,18,19,23.10
2015,08,09,18,20,23.10
2015,08,09,18,21,23.10
2015,08,09,18,22,23.10
2015,08,09,18,23,23.10
2015,08,09,18,24,23.10
2015,08,09,18,25,23.10
2015,08,09,18,26,23.10
2015,08,09,18,27,23.10
2015,08,09,18,29,23.10
2015,08,09,18,30,23.10
2015,08,09,18,31,23.10
2015,08,09,18,32,23.10
2015,08,09,18,33,23.10
2015,08,09,18,34,23.10
2015,08,09,18,35,23.10